CEB5039 RJGG-RPLL

Flight info

Callsign CEB5039
Flight time N/A
Altitude 38000
Route KEC Z262 ALUYO Z26 TONAR/N0476F400 Y525 ONC KXC Y62 MJC B462 LAO M646 SANRO/N0470F410 W4 NABAL
Aircraft A339/H-SADE1E2E3GHIJ3J5M1P2RWXY/LB2D1

Departure

Time 2026-04-30 09:00
Airport Chubu Centrair International Airport (RJGG)

Arrival

Time N/A
Airport Ninoy Aquino International Airport (RPLL)
Time Latitude Longitude Altitude Speed Heading
2026-04-30 08:28 34.85074 136.81493 16 ft 0 kts 78°
2026-04-30 08:46 34.85073 136.81482 16 ft 2 kts 85°
2026-04-30 08:46 34.85073 136.81465 16 ft 2 kts 100°
2026-04-30 08:46 34.85077 136.81447 16 ft 2 kts 113°
2026-04-30 08:46 34.85084 136.81432 16 ft 2 kts 126°
2026-04-30 08:47 34.85094 136.81418 16 ft 2 kts 139°
2026-04-30 08:47 34.85106 136.81407 16 ft 2 kts 152°
2026-04-30 08:47 34.85120 136.81400 16 ft 2 kts 165°
2026-04-30 08:47 34.85135 136.81396 16 ft 2 kts 172°
2026-04-30 08:48 34.85150 136.81393 16 ft 2 kts 169°
2026-04-30 08:48 34.85164 136.81389 16 ft 2 kts 169°
2026-04-30 08:48 34.85177 136.81386 16 ft 0 kts 169°
2026-04-30 08:48 34.85178 136.81386 16 ft 0 kts 169°
2026-04-30 08:51 34.85176 136.81387 16 ft 1 kts 169°
2026-04-30 08:51 34.85160 136.81390 16 ft 3 kts 168°
2026-04-30 08:51 34.85129 136.81398 16 ft 5 kts 175°
2026-04-30 08:52 34.85097 136.81375 16 ft 6 kts 230°
2026-04-30 08:52 34.85081 136.81320 16 ft 7 kts 262°
2026-04-30 08:52 34.85072 136.81249 16 ft 9 kts 260°
2026-04-30 08:52 34.85060 136.81169 16 ft 7 kts 258°
2026-04-30 08:53 34.85040 136.81108 16 ft 7 kts 218°
2026-04-30 08:53 34.84983 136.81102 16 ft 9 kts 168°
2026-04-30 08:53 34.84914 136.81122 16 ft 10 kts 167°
2026-04-30 08:53 34.84843 136.81140 16 ft 10 kts 169°
2026-04-30 08:54 34.84774 136.81155 16 ft 10 kts 169°
2026-04-30 08:54 34.84705 136.81171 16 ft 10 kts 170°
2026-04-30 08:54 34.84637 136.81186 16 ft 9 kts 168°
2026-04-30 08:54 34.84570 136.81204 16 ft 9 kts 167°
2026-04-30 08:55 34.84502 136.81223 16 ft 10 kts 168°
2026-04-30 08:55 34.84439 136.81238 16 ft 9 kts 169°
2026-04-30 08:55 34.84383 136.81242 16 ft 6 kts 193°
2026-04-30 08:55 34.84356 136.81207 16 ft 6 kts 255°
2026-04-30 08:56 34.84347 136.81145 16 ft 8 kts 261°
2026-04-30 08:56 34.84341 136.81102 16 ft 2 kts 259°
2026-04-30 08:56 34.84339 136.81085 16 ft 0 kts 259°
2026-04-30 08:56 34.84339 136.81082 16 ft 0 kts 259°
2026-04-30 08:57 34.84338 136.81081 16 ft 0 kts 259°
2026-04-30 08:57 34.84336 136.81065 16 ft 2 kts 259°
2026-04-30 08:57 34.84333 136.81049 16 ft 2 kts 259°
2026-04-30 08:57 34.84329 136.81024 16 ft 3 kts 259°
2026-04-30 08:58 34.84323 136.80983 16 ft 5 kts 259°
2026-04-30 08:58 34.84315 136.80931 16 ft 4 kts 263°
2026-04-30 08:58 34.84327 136.80904 16 ft 4 kts 324°
2026-04-30 08:58 34.84350 136.80893 16 ft 0 kts 349°
2026-04-30 08:59 34.84424 136.80876 16 ft 35 kts 349°
2026-04-30 08:59 34.84903 136.80765 17 ft 101 kts 349°
2026-04-30 09:00 34.85777 136.80553 21 ft 153 kts 348°
2026-04-30 09:00 34.86865 136.80289 439 ft 163 kts 347°
2026-04-30 09:00 34.87823 136.79613 973 ft 167 kts 301°